sat.trackr.live / text

‹ back to catalog

ETIHAD-SAT

NORAD 63226 · 2025-052S

PAYLOAD ACTIVE UNKNOWN

§ Identity

Operator
Country
UAE
Launch date
2025-03-15
Launch site
AFWTR
Launch vehicle
Mass (kg)
RCS (m²)

External: N2YO · Heavens-Above · Gunter

§ Orbital elements

Epoch: 2026-09-22T16:48:05.113152Z

Period
94.57 min
Inclination
97.3812°
Eccentricity
0.0005923
Mean motion
15.22710930 rev/d
Perigee alt
493.6 km
Apogee alt
501.7 km
Semi-major
6,875.8 km
B*
1.1554e-4
RAAN
156.5900°
Arg perigee
143.6599°
Mean anomaly
216.5041°
Rev number
8,467

§ Raw data

ETIHAD-SAT1 63226U 25052S   26265.70005918  .00002625  00000+0  11554-3 0  99972 63226  97.3812 156.5900 0005923 143.6599 216.5041 15.22710930 84677

JSON: /api/v1/satellites/63226 · /tle

For live sub-satellite position, see the globe view (requires WebGL).

§ Visibility from observer

Set your observer location to see the next 7 days of passes ≥ 10°. The values pass through the URL so the page stays shareable.

No JS? Fill the form by hand. The geolocation button needs JavaScript.